Weather in Lalsk

Russia / Kirov Oblast     60°44′06″N   47°35′11″E
temp.,
°C
wind,
m/s
gust,
m/s
humid.,
%
clouds,
%
prec.,
mm/h
press.,
hPa
HPBL,
m
13 may, thu
thu1300:00+13s118116 0.0 102610
03:00+11s11804 0.0 102610
06:00+15s13650 0.0 1026116
09:00+21s24492 0.0 1025512
12:00+25s36385 0.0 10242531
15:00+25ssw354244 0.0 10221516
18:00+22sse235667 0.0 102173
21:00+17sse227197 0.0 102028
14 may, fri
fri1400:00+16s2477100 0.0 101973
03:00+14sse259080 0.5 101995
06:00+16s3982100 0.2 1017444
09:00+19sw4776100 2.6 10171080
12:00+20wsw4765100 0.1 10171247
15:00+22wsw47455 0.1 10171811
18:00+21sw4853100 0.0 1016668
21:00+15wnw2275100 0.0 101724
15 may, sat
sat1500:00+13ssw11785 0.0 101711
03:00+12s118448 0.0 101812
06:00+16s257649 0.0 1017185
09:00+21s3559100 0.1 1016685
12:00+24ssw485253 0.2 10141828
15:00+21sse236675 0.3 101252
18:00+17ne469387 4.2 1010147
21:00+16w1396100 14.4 101299
16 may, sun
sun1600:00+15se41097100 2.1 1010317
03:00+15ssw412944 2.3 1009522
06:00+16ssw4119032 0.0 1009622
09:00+20sw510692 0.0 10091189
12:00+23sw610507 0.1 10092243
15:00+23sw5104879 0.3 10082752
18:00+21wsw495799 0.0 1008805
21:00+15sw278123 0.0 1008145
17 may, mon
mon1700:00+14sw4128891 1.2 1009367
03:00+12wsw39965 1.3 1010299
06:00+14w379063 0.0 1011396
09:00+15w4685100 0.2 1013809
12:00+15nnw358699 0.5 1015633
15:00+18nw2366100 0.6 10171223
18:00+17n12706 0.1 1018462
21:00+12sw008898 0.1 101910